Date,TemperatureHighF,TemperatureAvgF,TemperatureLowF,DewpointHighF,DewpointAvgF,DewpointLowF,HumidityHigh,HumidityAvg,HumidityLow,PressureMaxIn,PressureMinIn,WindSpeedMaxMPH,WindSpeedAvgMPH,GustSpeedMaxMPH,PrecipitationSumIn
2013-1-1,14,7,-3,6,0,-8,80,73,62,29.70,29.55,8,0,8,0.00
2013-1-2,21,15,11,15,9,-7,83,70,41,29.58,29.51,8,0,8,0.00
2013-1-3,20,16,12,16,11,0,84,79,77,29.63,29.46,9,1,12,0.00
2013-1-4,32,18,10,22,12,6,85,77,66,29.67,29.43,10,0,11,0.00
2013-1-5,29,17,4,23,11,0,85,77,71,29.68,29.39,7,0,7,0.00
2013-1-6,26,20,11,20,13,0,85,72,74,29.72,29.39,4,0,6,0.00
2013-1-7,33,23,11,24,16,7,82,75,66,29.68,29.39,14,4,17,0.00
2013-1-8,41,30,0,30,21,0,86,64,60,29.61,29.34,12,2,16,0.00
2013-1-9,34,29,18,27,22,12,82,73,63,29.94,29.34,12,2,15,0.00
2013-1-10,41,28,15,27,17,0,83,66,43,29.97,29.43,10,0,10,0.12
2013-1-11,39,35,32,37,32,27,92,89,83,29.44,29.07,7,0,7,0.00
2013-1-12,42,28,14,40,24,8,93,82,75,29.51,29.02,17,4,17,0.00
2013-1-13,15,12,4,9,4,-1,78,51,72,29.64,29.44,6,0,15,0.00
2013-1-14,14,6,0,6,1,-6,80,76,71,29.86,29.64,9,2,10,0.00
2013-1-15,26,14,-1,14,6,-6,82,72,41,29.85,29.42,12,3,12,0.00
2013-1-16,26,20,12,21,14,4,84,76,69,29.61,29.14,14,4,14,0.00
2013-1-17,12,5,0,4,-3,-7,74,70,64,29.81,29.62,8,1,8,0.00
2013-1-18,21,16,5,16,11,0,82,80,77,29.64,29.29,0,0,0,0.00
2013-1-19,34,22,2,29,17,-4,88,82,72,29.40,29.08,13,2,13,0.02
2013-1-20,6,0,-7,-2,-6,-14,78,73,67,29.72,29.40,8,1,8,0.00
2013-1-21,-7,-12,-15,0,-18,-23,75,69,64,29.66,29.56,10,1,10,0.00
2013-1-22,3,-10,-19,-7,-18,-29,73,67,61,29.76,29.65,6,1,7,0.00
2013-1-23,7,-4,-18,0,-11,-24,75,71,67,29.95,29.55,9,1,9,0.00
2013-1-24,6,-1,-17,-2,-8,-23,78,70,64,30.12,29.81,7,0,7,0.00
2013-1-25,15,9,3,9,4,-2,80,78,72,29.81,29.43,6,0,6,0.00
2013-1-26,22,12,-2,14,6,-7,83,77,70,29.86,29.67,6,0,6,0.00
2013-1-27,29,20,17,19,14,10,79,74,66,29.79,29.56,6,1,7,0.00
2013-1-28,33,30,26,28,26,23,88,85,82,29.49,29.36,1,0,6,0.06
2013-1-29,33,31,28,31,28,25,91,90,87,29.36,29.08,6,0,7,0.16
2013-1-30,29,19,10,26,15,6,89,85,82,29.18,28.99,8,1,8,0.00
2013-1-31,11,6,-1,6,1,-6,83,80,76,29.55,29.07,5,0,6,0.00